{"data":{"norad_id":59000,"epoch":"2026-09-20T22:53:36.471840Z","epoch_age_seconds":116436,"freshness":"FRESH","line1":"1 59000U 24036C   26263.95389435 -.00000896  00000+0 -15369-4 0  9996","line2":"2 59000  53.1605 247.2884 0001359  71.8895 288.2256 15.34398075145195","mean_motion":15.34398075,"eccentricity":0.0001359,"inclination_deg":53.1605,"raan_deg":247.2884,"arg_perigee_deg":71.8895,"mean_anomaly_deg":288.2256,"bstar":-1.5369e-5,"rev_number":14519,"period_min":93.847875819318,"perigee_km":461.77929075256,"apogee_km":463.63863268496,"semimajor_km":6840.8459617188,"source":"CELESTRAK","updated_at":"2026-09-21T09:00:34.023586Z"}}